| time (UTC) | temp F | wind direction | speed MPH | gust MPH | rain 1hr in | rain 24hr in | rain mn in | humidity % | barometer mb |
| 20260502215634 | 81 | 306 | 1.0 | 2.0 | 0.00 | 0.00 | 0.00 | ||
| 20260502215135 | 80 | 346 | 0.0 | 0.0 | 0.00 | 0.00 | 0.00 | ||
| 20260502214634 | 79 | 320 | 3.0 | 1.0 | 0.00 | 0.00 | 0.00 | ||
| 20260502214134 | 81 | 282 | 2.0 | 0.0 | 0.00 | 0.00 | 0.00 | ||
| 20260502213135 | 82 | 339 | 4.0 | 4.0 | 0.00 | 0.00 | 0.00 | ||
| 20260502212134 | 82 | 272 | 0.0 | 0.0 | 0.00 | 0.00 | 0.00 | ||
| 20260502211134 | 84 | 248 | 0.0 | 0.0 | 0.00 | 0.00 | 0.00 | ||
| 20260502210634 | 82 | 66 | 2.0 | 1.0 | 0.00 | 0.00 | 0.00 | ||
| 20260502210134 | 84 | 328 | 2.0 | 1.0 | 0.00 | 0.00 | 0.00 | ||
| 20260502205635 | 82 | 3 | 1.0 | 3.0 | 0.00 | 0.00 | 0.00 | ||
| 20260502205134 | 81 | 351 | 4.0 | 6.0 | 0.00 | 0.00 | 0.00 | ||
| 20260502204635 | 81 | 300 | 3.0 | 4.0 | 0.00 | 0.00 | 0.00 | ||
| 20260502203135 | 79 | 201 | 1.0 | 3.0 | 0.00 | 0.00 | 0.00 | ||
| 20260502202635 | 83 | 346 | 2.0 | 3.0 | 0.00 | 0.00 | 0.00 | ||
| 20260502202135 | 81 | 25 | 1.0 | 6.0 | 0.00 | 0.00 | 0.00 | ||
| 20260502201635 | 83 | 313 | 0.0 | 0.0 | 0.00 | 0.00 | 0.00 | ||
| 20260502201135 | 84 | 348 | 2.0 | 5.0 | 0.00 | 0.00 | 0.00 | ||
| 20260502200135 | 82 | 70 | 0.0 | 0.0 | 0.00 | 0.00 | 0.00 | ||
| 20260502195635 | 84 | 44 | 1.0 | 0.0 | 0.00 | 0.00 | 0.00 | ||
| 20260502195135 | 85 | 238 | 2.0 | 4.0 | 0.00 | 0.00 | 0.00 | ||
| 20260502194635 | 85 | 329 | 2.0 | 5.0 | 0.00 | 0.00 | 0.00 | ||
| 20260502194135 | 84 | 20 | 1.0 | 3.0 | 0.00 | 0.00 | 0.00 | ||
| 20260502193135 | 84 | 146 | 2.0 | 2.0 | 0.00 | 0.00 | 0.00 | ||
| 20260502192635 | 83 | 332 | 3.0 | 9.0 | 0.00 | 0.00 | 0.00 | ||
| 20260502192135 | 83 | 35 | 2.0 | 5.0 | 0.00 | 0.00 | 0.00 | ||
| 20260502191635 | 83 | 234 | 0.0 | 1.0 | 0.00 | 0.00 | 0.00 | ||
| 20260502191135 | 83 | 66 | 1.0 | 1.0 | 0.00 | 0.00 | 0.00 | ||
| 20260502190635 | 82 | 353 | 3.0 | 1.0 | 0.00 | 0.00 | 0.00 | ||
| 20260502190135 | 82 | 84 | 1.0 | 3.0 | 0.00 | 0.00 | 0.00 | ||
| 20260502185635 | 84 | 114 | 2.0 | 3.0 | 0.00 | 0.00 | 0.00 | ||
| 20260502185135 | 85 | 331 | 3.0 | 4.0 | 0.00 | 0.00 | 0.00 | ||
| 20260502184635 | 85 | 21 | 2.0 | 2.0 | 0.00 | 0.00 | 0.00 | ||
| 20260502184136 | 85 | 359 | 6.0 | 9.0 | 0.00 | 0.00 | 0.00 | ||
| 20260502183635 | 84 | 359 | 4.0 | 8.0 | 0.00 | 0.00 | 0.00 | ||
| 20260502183135 | 84 | 6 | 2.0 | 2.0 | 0.00 | 0.00 | 0.00 | ||
| 20260502182635 | 84 | 298 | 1.0 | 0.0 | 0.00 | 0.00 | 0.00 | ||
| 20260502182136 | 86 | 315 | 4.0 | 3.0 | 0.00 | 0.00 | 0.00 | ||
| 20260502181635 | 85 | 1 | 2.0 | 2.0 | 0.00 | 0.00 | 0.00 | ||
| 20260502181135 | 83 | 61 | 1.0 | 4.0 | 0.00 | 0.00 | 0.00 | ||
| 20260502180135 | 82 | 106 | 2.0 | 4.0 | 0.00 | 0.00 | 0.00 | ||
| 20260502170135 | 80 | 217 | 0.0 | 3.0 | 0.00 | 0.00 | 0.00 | ||
| 20260502164136 | 78 | 251 | 0.0 | 0.0 | 0.00 | 0.00 | 0.00 | ||
| 20260502163635 | 77 | 349 | 2.0 | 2.0 | 0.00 | 0.00 | 0.00 | ||
| 20260502163135 | 76 | 153 | 2.0 | 2.0 | 0.00 | 0.00 | 0.00 | ||
| 20260502162635 | 76 | 58 | 2.0 | 2.0 | 0.00 | 0.00 | 0.00 | ||
| 20260502162136 | 77 | 336 | 1.0 | 1.0 | 0.00 | 0.00 | 0.00 | ||
| 20260502161635 | 76 | 244 | 2.0 | 2.0 | 0.00 | 0.00 | 0.00 | ||
| 20260502161135 | 76 | 13 | 4.0 | 2.0 | 0.00 | 0.00 | 0.00 | ||
| 20260502160636 | 75 | 342 | 3.0 | 3.0 | 0.00 | 0.00 | 0.00 | ||
| 20260502160135 | 74 | 73 | 1.0 | 0.0 | 0.00 | 0.00 | 0.00 | ||
| 20260502152136 | 70 | 307 | 1.0 | 1.0 | 0.00 | 0.00 | 0.00 | ||
| 20260502151636 | 70 | 260 | 1.0 | 0.0 | 0.00 | 0.00 | 0.00 | ||
| 20260502151136 | 70 | 338 | 0.0 | 0.0 | 0.00 | 0.00 | 0.00 | ||
| 20260502150636 | 69 | 307 | 2.0 | 3.0 | 0.00 | 0.00 | 0.00 | ||
| 20260502150136 | 68 | 344 | 1.0 | 3.0 | 0.00 | 0.00 | 0.00 | ||
| 20260502130136 | 56 | 358 | 0.0 | 0.0 | 0.00 | 0.00 | 0.00 | ||
| 20260502123636 | 53 | 222 | 0.0 | 0.0 | 0.00 | 0.00 | 0.00 | ||
| 20260502122636 | 51 | 222 | 0.0 | 0.0 | 0.00 | 0.00 | 0.00 | ||
| 20260502121636 | 50 | 222 | 0.0 | 0.0 | 0.00 | 0.00 | 0.00 | ||
| 20260502121136 | 49 | 222 | 0.0 | 0.0 | 0.00 | 0.00 | 0.00 | ||
| 20260502120636 | 49 | 222 | 0.0 | 0.0 | 0.00 | 0.00 | 0.00 | ||
| 20260502120136 | 49 | 222 | 0.0 | 0.0 | 0.00 | 0.00 | 0.00 | ||
| 20260502115636 | 49 | 222 | 0.0 | 0.0 | 0.00 | 0.00 | 0.00 | ||
| 20260502115136 | 49 | 222 | 0.0 | 0.0 | 0.00 | 0.00 | 0.00 | ||
| 20260502114637 | 49 | 222 | 0.0 | 0.0 | 0.00 | 0.00 | 0.00 | ||
| 20260502114136 | 49 | 222 | 0.0 | 0.0 | 0.00 | 0.00 | 0.00 | ||
| 20260502113637 | 50 | 237 | 0.0 | 1.0 | 0.00 | 0.00 | 0.00 | ||
| 20260502112636 | 49 | 229 | 0.0 | 0.0 | 0.00 | 0.00 | 0.00 | ||
| 20260502110636 | 50 | 229 | 0.0 | 0.0 | 0.00 | 0.00 | 0.00 | ||
| 20260502105637 | 50 | 229 | 0.0 | 0.0 | 0.00 | 0.00 | 0.00 | ||
| 20260502104137 | 51 | 344 | 0.0 | 0.0 | 0.00 | 0.00 | 0.00 | ||
| 20260502103637 | 51 | 344 | 0.0 | 0.0 | 0.00 | 0.00 | 0.00 | ||
| 20260502103136 | 51 | 344 | 0.0 | 0.0 | 0.00 | 0.00 | 0.00 | ||
| 20260502102637 | 51 | 344 | 0.0 | 0.0 | 0.00 | 0.00 | 0.00 | ||
| 20260502102137 | 51 | 344 | 0.0 | 0.0 | 0.00 | 0.00 | 0.00 | ||
| 20260502101637 | 51 | 344 | 0.0 | 0.0 | 0.00 | 0.00 | 0.00 | ||
| 20260502101137 | 51 | 344 | 0.0 | 0.0 | 0.00 | 0.00 | 0.00 | ||
| 20260502100637 | 51 | 272 | 0.0 | 0.0 | 0.00 | 0.00 | 0.00 | ||
| 20260502100136 | 51 | 272 | 0.0 | 0.0 | 0.00 | 0.00 | 0.00 | ||
| 20260502091137 | 51 | 229 | 0.0 | 0.0 | 0.00 | 0.00 | 0.00 | ||
| 20260502090637 | 51 | 229 | 0.0 | 0.0 | 0.00 | 0.00 | 0.00 | ||
| 20260502090137 | 51 | 229 | 0.0 | 0.0 | 0.00 | 0.00 | 0.00 | ||
| 20260502070637 | 52 | 229 | 0.0 | 0.0 | 0.00 | 0.00 | 0.00 | ||
| 20260502070137 | 52 | 229 | 0.0 | 0.0 | 0.00 | 0.00 | 0.00 | ||
| 20260502065137 | 52 | 229 | 0.0 | 0.0 | 0.00 | 0.00 | 0.00 | ||
| 20260502064637 | 51 | 229 | 0.0 | 0.0 | 0.00 | 0.00 | 0.00 | ||
| 20260502064137 | 51 | 229 | 0.0 | 0.0 | 0.00 | 0.00 | 0.00 | ||
| 20260502063639 | 52 | 229 | 0.0 | 0.0 | 0.00 | 0.00 | 0.00 | ||
| 20260502063137 | 52 | 229 | 0.0 | 0.0 | 0.00 | 0.00 | 0.00 | ||
| 20260502062637 | 52 | 229 | 0.0 | 0.0 | 0.00 | 0.00 | 0.00 | ||
| 20260502062138 | 52 | 229 | 0.0 | 0.0 | 0.00 | 0.00 | 0.00 | ||
| 20260502061637 | 52 | 229 | 0.0 | 0.0 | 0.00 | 0.00 | 0.00 | ||
| 20260502061137 | 53 | 229 | 0.0 | 0.0 | 0.00 | 0.00 | 0.00 | ||
| 20260502060637 | 53 | 229 | 0.0 | 0.0 | 0.00 | 0.00 | 0.00 | ||
| 20260502060138 | 54 | 229 | 0.0 | 0.0 | 0.00 | 0.00 | 0.00 | ||
| 20260502055637 | 54 | 229 | 0.0 | 0.0 | 0.00 | 0.00 | 0.00 | ||
| 20260502055137 | 54 | 115 | 0.0 | 0.0 | 0.00 | 0.00 | 0.00 | ||
| 20260502054638 | 53 | 115 | 0.0 | 0.0 | 0.00 | 0.00 | 0.00 | ||
| 20260502054138 | 53 | 115 | 0.0 | 0.0 | 0.00 | 0.00 | 0.00 | ||
| 20260502053638 | 53 | 115 | 0.0 | 0.0 | 0.00 | 0.00 | 0.00 | ||
| 20260502053138 | 53 | 115 | 0.0 | 0.0 | 0.00 | 0.00 | 0.00 | ||
| 20260502052638 | 53 | 115 | 0.0 | 0.0 | 0.00 | 0.00 | 0.00 | ||
| 20260502052138 | 54 | 115 | 0.0 | 0.0 | 0.00 | 0.00 | 0.00 | ||
| 20260502051638 | 54 | 115 | 0.0 | 0.0 | 0.00 | 0.00 | 0.00 | ||
| 20260502051211 | 54 | 115 | 0.0 | 0.0 | 0.00 | 0.00 | 0.00 | ||
| 20260502051138 | 54 | 115 | 0.0 | 0.0 | 0.00 | 0.00 | 0.00 | ||
| 20260502050638 | 54 | 115 | 0.0 | 0.0 | 0.00 | 0.00 | 0.00 | ||
| 20260502050138 | 54 | 115 | 0.0 | 0.0 | 0.00 | 0.00 | 0.00 | ||
| 20260502045638 | 55 | 115 | 0.0 | 0.0 | 0.00 | 0.00 | 0.00 | ||
| 20260502045138 | 55 | 115 | 0.0 | 0.0 | 0.00 | 0.00 | 0.00 | ||
| 20260502044638 | 55 | 115 | 0.0 | 0.0 | 0.00 | 0.00 | 0.00 | ||
| 20260502044138 | 55 | 115 | 0.0 | 0.0 | 0.00 | 0.00 | 0.00 | ||
| 20260502043638 | 55 | 115 | 0.0 | 0.0 | 0.00 | 0.00 | 0.00 | ||
| 20260502043138 | 55 | 115 | 0.0 | 0.0 | 0.00 | 0.00 | 0.00 | ||
| 20260502042638 | 55 | 115 | 0.0 | 0.0 | 0.00 | 0.00 | 0.00 | ||
| 20260502042138 | 56 | 115 | 0.0 | 0.0 | 0.00 | 0.00 | 0.00 | ||
| 20260502041138 | 56 | 115 | 0.0 | 0.0 | 0.00 | 0.00 | 0.00 | ||
| 20260502040638 | 57 | 115 | 0.0 | 0.0 | 0.00 | 0.00 | 0.00 | ||
| 20260502040138 | 58 | 115 | 0.0 | 0.0 | 0.00 | 0.00 | 0.00 | ||
| 20260502035638 | 58 | 115 | 0.0 | 0.0 | 0.00 | 0.00 | 0.00 | ||
| 20260502035138 | 58 | 115 | 0.0 | 0.0 | 0.00 | 0.00 | 0.00 | ||
| 20260502034638 | 59 | 115 | 0.0 | 0.0 | 0.00 | 0.00 | 0.00 | ||
| 20260502034139 | 59 | 115 | 0.0 | 0.0 | 0.00 | 0.00 | 0.00 | ||
| 20260502033638 | 59 | 115 | 0.0 | 0.0 | 0.00 | 0.00 | 0.00 | ||
| 20260502033138 | 59 | 115 | 0.0 | 0.0 | 0.00 | 0.00 | 0.00 | ||
| 20260502032639 | 59 | 115 | 0.0 | 0.0 | 0.00 | 0.00 | 0.00 | ||
| 20260502032138 | 59 | 115 | 0.0 | 0.0 | 0.00 | 0.00 | 0.00 | ||
| 20260502031638 | 59 | 115 | 0.0 | 0.0 | 0.00 | 0.00 | 0.00 | ||
| 20260502031139 | 59 | 115 | 0.0 | 0.0 | 0.00 | 0.00 | 0.00 | ||
| 20260502030638 | 59 | 115 | 0.0 | 0.0 | 0.00 | 0.00 | 0.00 | ||
| 20260502030138 | 59 | 115 | 0.0 | 0.0 | 0.00 | 0.00 | 0.00 | ||
| 20260502025638 | 59 | 115 | 0.0 | 0.0 | 0.00 | 0.00 | 0.00 | ||
| 20260502025139 | 59 | 115 | 0.0 | 0.0 | 0.00 | 0.00 | 0.00 | ||
| 20260502024713 | 60 | 115 | 0.0 | 0.0 | 0.00 | 0.00 | 0.00 | ||
| 20260502024638 | 60 | 115 | 0.0 | 0.0 | 0.00 | 0.00 | 0.00 | ||
| 20260502024138 | 60 | 115 | 0.0 | 0.0 | 0.00 | 0.00 | 0.00 | ||
| 20260502023639 | 60 | 115 | 0.0 | 0.0 | 0.00 | 0.00 | 0.00 | ||
| 20260502023138 | 60 | 115 | 0.0 | 0.0 | 0.00 | 0.00 | 0.00 | ||
| 20260502022638 | 60 | 115 | 0.0 | 0.0 | 0.00 | 0.00 | 0.00 | ||
| 20260502022138 | 60 | 115 | 0.0 | 0.0 | 0.00 | 0.00 | 0.00 | ||
| 20260502021638 | 60 | 115 | 0.0 | 0.0 | 0.00 | 0.00 | 0.00 | ||
| 20260502021138 | 61 | 115 | 0.0 | 0.0 | 0.00 | 0.00 | 0.00 | ||
| 20260502020638 | 60 | 115 | 0.0 | 0.0 | 0.00 | 0.00 | 0.00 | ||
| 20260502020139 | 61 | 115 | 0.0 | 0.0 | 0.00 | 0.00 | 0.00 | ||
| 20260502015638 | 61 | 115 | 0.0 | 0.0 | 0.00 | 0.00 | 0.00 | ||
| 20260502015138 | 61 | 115 | 0.0 | 0.0 | 0.00 | 0.00 | 0.00 | ||
| 20260502014639 | 62 | 115 | 0.0 | 0.0 | 0.00 | 0.00 | 0.00 | ||
| 20260502014138 | 62 | 115 | 0.0 | 0.0 | 0.00 | 0.00 | 0.00 | ||
| 20260502013638 | 62 | 115 | 0.0 | 0.0 | 0.00 | 0.00 | 0.00 | ||
| 20260502013139 | 62 | 115 | 0.0 | 0.0 | 0.00 | 0.00 | 0.00 | ||
| 20260502012639 | 62 | 115 | 0.0 | 0.0 | 0.00 | 0.00 | 0.00 | ||
| 20260502012138 | 62 | 100 | 0.0 | 2.0 | 0.00 | 0.00 | 0.00 | ||
| 20260502011638 | 62 | 79 | 0.0 | 0.0 | 0.00 | 0.00 | 0.00 | ||
| 20260502011138 | 62 | 79 | 0.0 | 0.0 | 0.00 | 0.00 | 0.00 | ||
| 20260502010638 | 63 | 70 | 0.0 | 1.0 | 0.00 | 0.00 | 0.00 | ||
| 20260502010138 | 62 | 86 | 0.0 | 0.0 | 0.00 | 0.00 | 0.00 | ||
| 20260502005638 | 63 | 217 | 0.0 | 0.0 | 0.00 | 0.00 | 0.00 | ||
| 20260502005139 | 63 | 62 | 0.0 | 0.0 | 0.00 | 0.00 | 0.00 | ||
| 20260502004139 | 63 | 30 | 0.0 | 3.0 | 0.00 | 0.00 | 0.00 | ||
| 20260502003639 | 64 | 108 | 1.0 | 2.0 | 0.00 | 0.00 | 0.00 | ||
| 20260502003139 | 64 | 149 | 0.0 | 0.0 | 0.00 | 0.00 | 0.00 | ||
| 20260502002639 | 64 | 107 | 0.0 | 0.0 | 0.00 | 0.00 | 0.00 | ||
| 20260502002139 | 64 | 107 | 0.0 | 0.0 | 0.00 | 0.00 | 0.00 | ||
| 20260502001139 | 64 | 62 | 0.0 | 0.0 | 0.00 | 0.00 | 0.00 | ||
| 20260502000639 | 64 | 62 | 0.0 | 0.0 | 0.00 | 0.00 | 0.00 | ||
| 20260502000139 | 64 | 62 | 0.0 | 0.0 | 0.00 | 0.00 | 0.00 | ||
| 20260501235639 | 64 | 62 | 0.0 | 0.0 | 0.00 | 0.00 | 0.00 | ||
| 20260501235139 | 64 | 62 | 0.0 | 0.0 | 0.00 | 0.00 | 0.00 | ||
| 20260501234639 | 64 | 62 | 0.0 | 0.0 | 0.00 | 0.00 | 0.00 | ||
| 20260501234139 | 64 | 62 | 0.0 | 0.0 | 0.00 | 0.00 | 0.00 | ||
| 20260501233639 | 65 | 62 | 0.0 | 0.0 | 0.00 | 0.00 | 0.00 | ||
| 20260501233139 | 64 | 62 | 0.0 | 0.0 | 0.00 | 0.00 | 0.00 | ||
| 20260501232139 | 64 | 73 | 0.0 | 0.0 | 0.00 | 0.00 | 0.00 | ||
| 20260501231639 | 65 | 41 | 1.0 | 3.0 | 0.00 | 0.00 | 0.00 | ||
| 20260501231139 | 65 | 96 | 1.0 | 3.0 | 0.00 | 0.00 | 0.00 | ||
| 20260501230639 | 65 | 189 | 0.0 | 0.0 | 0.00 | 0.00 | 0.00 | ||
| 20260501230139 | 65 | 189 | 0.0 | 0.0 | 0.00 | 0.00 | 0.00 | ||
| 20260501225639 | 65 | 68 | 0.0 | 0.0 | 0.00 | 0.00 | 0.00 | ||
| 20260501225139 | 65 | 110 | 2.0 | 3.0 | 0.00 | 0.00 | 0.00 | ||
| 20260501224639 | 65 | 46 | 0.0 | 0.0 | 0.00 | 0.00 | 0.00 | ||
| 20260501224139 | 65 | 56 | 2.0 | 7.0 | 0.00 | 0.00 | 0.00 | ||
| 20260501223639 | 65 | 75 | 1.0 | 2.0 | 0.00 | 0.00 | 0.00 | ||
| 20260501223139 | 65 | 127 | 1.0 | 2.0 | 0.00 | 0.00 | 0.00 | ||
| 20260501222639 | 65 | 80 | 0.0 | 1.0 | 0.00 | 0.00 | 0.00 | ||
| 20260501222139 | 65 | 89 | 2.0 | 1.0 | 0.00 | 0.00 | 0.00 | ||
| 20260501221639 | 65 | 76 | 1.0 | 3.0 | 0.00 | 0.00 | 0.00 | ||
| 20260501221139 | 65 | 65 | 2.0 | 6.0 | 0.00 | 0.00 | 0.00 | ||
| 20260501220639 | 65 | 92 | 1.0 | 3.0 | 0.00 | 0.00 | 0.00 |